Back to catalog

STARLINK-33798

AliveCommunicationsVLEO
NORAD 63449·PAYLOAD·🇺🇸 United States

Launched Apr 4, 2025 from Vandenberg Space Force Base

Loading…

Next Passes (next 24 hours)

TLE

FreshSource: CelesTrak SupGP

Epoch: Sep 14, 2026, 15:08 UTC

1 63449C 25069S   26257.63104167  .00000649  00000+0  19186-4 0  2572
2 63449  53.1598 337.3918 0001158  84.3064  52.6724 15.34373024    12

Track STARLINK-33798 in real time with AllMySat

Download on the App Store